Weather History for Andover, NJ

Change the Weather History Date:

Tuesday, October 23, 2012

  Actual Average (KFWN) Record (KFWN)
Temperature  
Mean Temperature 50 °F -  
Max Temperature 57 °F 62 °F 85 °F (1979)
Min Temperature 44 °F 32 °F 21 °F (1974)
Degree Days  
Heating Degree Days 14    
Moisture  
Dew Point 48 °F    
Average Humidity 90    
Maximum Humidity 97    
Minimum Humidity 75    
Precipitation  
Precipitation 0.08 in - - ()
Sea Level Pressure  
Sea Level Pressure 30.11 in    
Wind  
Wind Speed 0 mph (West)    
Max Wind Speed 4 mph    
Max Gust Speed -    
Averages and records for this station are not official NWS values.
T = Trace of Precipitation, MM = Missing Value Source: NWS Daily Summary

Daily Weather History Graph

Daily Weather History Graph

Search for Another Location

Airport:

Trip Planner

Search our weather history database for the weather conditions in past years. The results will help you decide how hot, cold, wet, or windy it might be!

Date:

Astronomy

Oct. 23, 2012 Rise Set
Actual Time 7:19 AM EDT 6:05 PM EDT
Civil Twilight 6:51 AM EDT 6:33 PM EDT
Nautical Twilight 6:19 AM EDT 7:06 PM EDT
Astronomical Twilight 5:47 AM EDT 7:37 PM EDT
Moon 2:50 PM EDT (10/23) 1:06 AM EDT (10/23)
Length of Visible Light 11h 42m
Length of Day
10h 46m
Waxing Gibbous, 66% of the Moon is Illuminated
Oct 23
Waxing Gibbous
Oct 29
Full
Nov 6
Last Quarter
Nov 13
New
Nov 20
First Quarter

Hourly Weather History & Observations

Time (EDT) Temp. Dew Point Humidity Pressure Visibility Wind Dir Wind Speed Gust Speed Precip Events Conditions
12:54 AM 45.0 °F 43.0 °F 93% 30.10 in - Calm Calm - N/A   Unknown
1:54 AM 45.0 °F 43.0 °F 93% 30.09 in - Calm Calm - N/A   Unknown
2:54 AM 45.0 °F 42.1 °F 90% 30.09 in - Calm Calm - N/A   Unknown
3:54 AM 44.1 °F 42.1 °F 93% 30.09 in - Calm Calm - N/A   Unknown
4:54 AM 44.1 °F 42.1 °F 93% 30.09 in - Calm Calm - N/A   Unknown
6:54 AM 44.1 °F 42.1 °F 93% 30.12 in - Calm Calm - N/A   Unknown
7:54 AM 44.1 °F 43.0 °F 96% 30.14 in - Calm Calm - N/A   Unknown
8:54 AM 48.0 °F 46.0 °F 93% 30.15 in - Calm Calm - N/A   Unknown
9:54 AM 51.1 °F 46.0 °F 83% 30.14 in - SSW 3.5 mph - N/A   Unknown
10:54 AM 52.0 °F 48.0 °F 86% 30.15 in - Calm Calm - 0.01 in   Unknown
11:54 AM 55.9 °F 48.0 °F 75% 30.14 in - Calm Calm - N/A   Unknown
12:54 PM 55.0 °F 51.1 °F 86% 30.12 in - Calm Calm - 0.01 in   Unknown
1:54 PM 55.0 °F 51.1 °F 86% 30.11 in - Calm Calm - N/A   Unknown
2:54 PM 55.9 °F 51.1 °F 84% 30.09 in - North 3.5 mph - N/A   Unknown
3:00 PM - - N/A% - - North - - N/A   Unknown
3:54 PM 57.0 °F 52.0 °F 83% 30.09 in - Calm Calm - N/A   Unknown
4:54 PM 57.9 °F 53.1 °F 84% 30.09 in - Calm Calm - N/A   Unknown
5:54 PM 55.9 °F 54.0 °F 93% 30.09 in - Calm Calm - 0.01 in   Unknown
6:54 PM 55.0 °F 54.0 °F 96% 30.09 in - Calm Calm - N/A   Unknown
7:54 PM 55.0 °F 53.1 °F 93% 30.10 in - Calm Calm - N/A   Unknown
8:54 PM 54.0 °F 53.1 °F 97% 30.11 in - Calm Calm - 0.01 in   Unknown
9:54 PM 54.0 °F 53.1 °F 97% 30.11 in - Calm Calm - 0.02 in   Unknown
10:54 PM 54.0 °F 52.0 °F 93% 30.10 in - Calm Calm - 0.02 in   Unknown
11:54 PM 54.0 °F 52.0 °F 93% 30.10 in - Calm Calm - N/A   Unknown